Location: Alfords
(31.4624°N, 83.9238°W)
Time: 05:15:37
(UTC+00:00)

Tiangong - Pass Details

Date: 30 September 2021
Orbit: 381 x 390 km, 41.5° (Epoch: 24 October)

Event Time Altitude Azimuth Distance (km) Brightness Sun altitude
Exits shadow 10:57:37 - 310° (NW) 1,823 4.0 -7.5°
Reaches altitude 10° 10:59:15 10° 330° (NNW) 1,394 3.6 -7.2°
Maximum altitude 11:00:51 13° 1° (N) 1,222 3.6 -6.8°
Drops below altitude 10° 11:02:28 10° 32° (NNE) 1,399 4.4 -6.5°
Sets 11:05:23 0° 61° (ENE) 2,260 6.2 -5.9°
